Weather History for Ft Pierce, FL

Change the Weather History Date:

Tuesday, May 6, 2014

  Actual Average Record
Temperature  
Mean Temperature 70 °F -  
Max Temperature 84 °F 84 °F 92 °F (1948)
Min Temperature 57 °F 65 °F 51 °F (1945)
Cooling Degree Days 4    
Growing Degree Days 20 (Base 50)    
Moisture  
Dew Point 63 °F    
Average Humidity 71    
Maximum Humidity 93    
Minimum Humidity 51    
Precipitation  
Precipitation 0.00 in - - ()
Sea Level Pressure  
Sea Level Pressure 30.03 in    
Wind  
Wind Speed 4 mph (ESE)    
Max Wind Speed 13 mph    
Max Gust Speed -    
Visibility 9 miles    
Events      
Averages and records for this station are not official NWS values.
T = Trace of Precipitation, MM = Missing Value Source: NWS Daily Summary

Daily Weather History Graph

Daily Weather History Graph

Search for Another Location

Airport:

Trip Planner

Search our weather history database for the weather conditions in past years. The results will help you decide how hot, cold, wet, or windy it might be!

Date:

Astronomy

May. 06, 2014 Rise Set
Actual Time 6:38 AM EDT 7:58 PM EDT
Civil Twilight 6:13 AM EDT 8:23 PM EDT
Nautical Twilight 5:43 AM EDT 8:52 PM EDT
Astronomical Twilight 5:13 AM EDT 9:23 PM EDT
Moon 12:46 PM EDT (5/6) 1:21 AM EDT (5/6)
Length of Visible Light 14h 09m
Length of Day
13h 19m
Waxing Crescent, 46% of the Moon is Illuminated
May 6
Waxing Crescent
May 6
First Quarter
May 14
Full
May 21
Last Quarter
May 28
New

Hourly Weather History & Observations

Time (EDT) Temp. Heat Index Dew Point Humidity Pressure Visibility Wind Dir Wind Speed Gust Speed Precip Events Conditions
12:53 AM 61.0 °F - 57.9 °F 90% 30.03 in 6.0 mi Calm Calm - N/A   Clear
1:53 AM 60.1 °F - 57.9 °F 93% 30.02 in 9.0 mi Calm Calm - N/A   Clear
2:53 AM 60.1 °F - 57.0 °F 90% 30.00 in 9.0 mi Calm Calm - N/A   Clear
3:33 AM 59.0 °F - 57.0 °F 93% 30.00 in 1.8 mi Calm Calm - N/A   Clear
3:53 AM 57.9 °F - 55.0 °F 90% 30.00 in 4.0 mi Calm Calm - N/A   Clear
7:53 AM 64.9 °F - 62.1 °F 90% 30.04 in 5.0 mi Calm Calm - N/A   Clear
8:53 AM 73.9 °F - 64.0 °F 71% 30.05 in 10.0 mi West 4.6 mph - N/A   Clear
10:53 AM 81.0 °F 81.9 °F 62.1 °F 52% 30.06 in 10.0 mi SSW 4.6 mph - N/A   Clear
11:53 AM 82.0 °F 83.0 °F 62.1 °F 51% 30.06 in 10.0 mi ESE 9.2 mph - N/A   Clear
12:53 PM 82.0 °F 83.1 °F 63.0 °F 52% 30.05 in 10.0 mi ESE 9.2 mph - N/A   Clear
1:53 PM 82.9 °F 84.0 °F 63.0 °F 51% 30.04 in 10.0 mi East 9.2 mph - N/A   Clear
2:53 PM 82.0 °F 83.4 °F 64.0 °F 54% 30.02 in 10.0 mi ESE 9.2 mph - N/A   Clear
3:53 PM 82.0 °F 83.8 °F 64.9 °F 56% 30.01 in 10.0 mi East 12.7 mph - N/A   Clear
4:53 PM 82.0 °F 84.5 °F 66.9 °F 60% 30.00 in 10.0 mi East 11.5 mph - N/A   Clear
5:53 PM 81.0 °F 83.8 °F 68.0 °F 65% 30.00 in 10.0 mi East 11.5 mph - N/A   Clear
6:53 PM 79.0 °F - 68.0 °F 69% 30.01 in 10.0 mi East 9.2 mph - N/A   Scattered Clouds
7:53 PM 77.0 °F - 64.0 °F 64% 30.01 in 10.0 mi ESE 8.1 mph - N/A   Clear
8:53 PM 73.9 °F - 64.9 °F 73% 30.02 in 10.0 mi East 5.8 mph - N/A   Clear
9:53 PM 73.9 °F - 64.9 °F 73% 30.03 in 10.0 mi ESE 8.1 mph - N/A   Clear
10:53 PM 75.0 °F - 66.0 °F 73% 30.04 in 10.0 mi ESE 6.9 mph - N/A   Clear
11:53 PM 73.9 °F - 66.0 °F 76% 30.04 in 10.0 mi SE 6.9 mph - N/A   Clear